This is the latest recevied weather packets stored in our database for station/object SP2NBH-2. If no packets are shown the sender has not sent any weather packets the latest 10 day(s).
| Time | Temp. | Humidity | Pressure | Rain* | Wind** | Luminosity | Snow |
|---|---|---|---|---|---|---|---|
| 1777545666 | 16.11° C | 30% | 1029.5 hPa | - | - | - | - |
| 1777544765 | 16.67° C | 30% | 1029.7 hPa | - | - | - | - |
| 1777543865 | 14.44° C | 31% | 1029.9 hPa | - | - | - | - |
| 1777542965 | 15° C | 31% | 1030.1 hPa | - | - | - | - |
| 1777542154 | 15° C | 30% | 1030.2 hPa | - | - | - | - |
| 1777542065 | 15° C | 30% | 1030.2 hPa | - | - | - | - |
| 1777541165 | 15.56° C | 29% | 1030.5 hPa | - | - | - | - |
| 1777540265 | 15° C | 31% | 1030.5 hPa | - | - | - | - |
| 1777539365 | 14.44° C | 30% | 1030.5 hPa | - | - | - | - |
| 1777538465 | 13.89° C | 31% | 1030.8 hPa | - | - | - | - |
| 1777537565 | 12.78° C | 32% | 1030.9 hPa | - | - | - | - |
| 1777536665 | 11.67° C | 34% | 1031 hPa | - | - | - | - |
| 1777535765 | 11.11° C | 35% | 1031 hPa | - | - | - | - |
| 1777534865 | 10.56° C | 36% | 1031.2 hPa | - | - | - | - |
| 1777533965 | 10.56° C | 38% | 1031.4 hPa | - | - | - | - |
| 1777532256 | 8.89° C | 40% | 1031.9 hPa | - | - | - | - |
| 1777531356 | 8.33° C | 40% | 1031.9 hPa | - | - | - | - |
| 1777530456 | 7.22° C | 42% | 1031.9 hPa | - | - | - | - |
| 1777529556 | 7.22° C | 44% | 1032 hPa | - | - | - | - |
| 1777528656 | 6.67° C | 45% | 1032 hPa | - | - | - | - |
| 1777527759 | 6.11° C | 44% | 1032.1 hPa | - | - | - | - |
| 1777526856 | 5° C | 48% | 1032 hPa | - | - | - | - |
| 1777525956 | 4.44° C | 49% | 1032 hPa | - | - | - | - |
| 1777524155 | 3.89° C | 50% | 1032.1 hPa | - | - | - | - |
| 1777523255 | 3.33° C | 51% | 1032.1 hPa | - | - | - | - |
* Rain since midnight (hover to see other rain measurements)
** Current wind speed in m/s (hover to see current wind gust speed)